Massena, NY

7:40 PM EDT on September 20, 2019 (GMT -0400)
Massena International-Richards

Weather History for KMSS - July, 2019

Change the Weather History Date:

Wednesday, July 24, 2019

  Actual Average Record
Temperature  
Mean Temperature 64 °F 69 °F  
Max Temperature 78 °F 80 °F 92 °F (1979)
Min Temperature 51 °F 58 °F 46 °F (1953)
Degree Days  
Heating Degree Days 0 1  
Month to date heating degree days 24  
Since 1 June heating degree days 120  
Since 1 July heating degree days 24  
Cooling Degree Days 0 5  
Month to date cooling degree days 117  
Year to date cooling degree days 206  
Since 1 June cooling degree days 192  
Growing Degree Days 14 (Base 50)    
Moisture  
Dew Point 54 °F    
Average Humidity 69    
Maximum Humidity 93    
Minimum Humidity 43    
Precipitation  
Precipitation 0.00 in 0.12 in 1.95 in (1988)
Month to date precipitation 2.74  
Year to date precipitation 18.19  
Sea Level Pressure  
Sea Level Pressure 30.01 in    
Wind  
Wind Speed 2 mph (NW)    
Max Wind Speed 13 mph    
Max Gust Speed 17 mph    
Visibility 10 miles    
Events      
T = Trace of Precipitation, MM = Missing Value Source: NWS Daily Summary

Daily Weather History Graph

Daily Weather History Graph

Search for Another Location

Airport or City:

Astronomy

Jul. 24, 2019 Rise Set
Actual Time 5:35 AM EDT 8:35 PM EDT
Civil Twilight 5:01 AM EDT 9:09 PM EDT
Nautical Twilight 4:16 AM EDT 9:54 PM EDT
Astronomical Twilight 3:23 AM EDT 10:46 PM EDT
Moon 12:05 AM EDT (7/24) 1:02 PM EDT (7/24)
Length of Visible Light 16h 08m
Length of Day
14h 59m
Waning Gibbous, 54% of the Moon is Illuminated
Jul 24
Waning Gibbous
Jul 24
Last Quarter
Jul 31
New
Aug 7
First Quarter
Aug 15
Full

Hourly Weather History & Observations

Time (EDT) Temp. Dew Point Humidity Pressure Visibility Wind Dir Wind Speed Gust Speed Precip Events Conditions
12:53 AM 55.9 °F 52.0 °F 87% 29.96 in 10.0 mi Calm Calm - N/A   Clear
1:53 AM 54.0 °F 51.1 °F 90% 29.96 in 10.0 mi Calm Calm - N/A   Clear
2:53 AM 53.1 °F 50.0 °F 89% 29.97 in 10.0 mi Calm Calm - N/A   Clear
3:53 AM 52.0 °F 48.9 °F 89% 29.98 in 10.0 mi Calm Calm - N/A   Clear
4:53 AM 51.1 °F 48.9 °F 92% 29.99 in 6.0 mi Calm Calm - N/A   Clear
5:53 AM 51.1 °F 48.9 °F 92% 30.00 in 4.0 mi Calm Calm - N/A   Clear
6:53 AM 55.9 °F 53.1 °F 90% 30.02 in 10.0 mi Calm Calm - N/A   Clear
7:53 AM 62.1 °F 57.0 °F 84% 30.03 in 10.0 mi Calm Calm - N/A   Clear
8:53 AM 66.9 °F 57.9 °F 73% 30.04 in 10.0 mi Calm Calm - N/A   Clear
9:53 AM 70.0 °F 55.9 °F 61% 30.03 in 10.0 mi West 3.5 mph - N/A   Clear
10:53 AM 72.0 °F 55.0 °F 55% 30.03 in 10.0 mi Variable 4.6 mph - N/A   Clear
11:53 AM 73.0 °F 55.0 °F 53% 30.03 in 10.0 mi WNW 8.1 mph - N/A   Clear
12:53 PM 75.0 °F 55.0 °F 50% 30.02 in 10.0 mi NW 8.1 mph - N/A   Scattered Clouds
1:53 PM 73.9 °F 55.9 °F 53% 30.01 in 10.0 mi NNW 5.8 mph - N/A   Mostly Cloudy
2:53 PM 77.0 °F 55.0 °F 47% 30.00 in 10.0 mi WNW 11.5 mph 17.3 mph N/A   Clear
3:53 PM 78.1 °F 55.0 °F 45% 30.00 in 10.0 mi West 12.7 mph - N/A   Partly Cloudy
4:53 PM 77.0 °F 53.1 °F 43% 29.99 in 10.0 mi NW 10.4 mph - N/A   Clear
5:53 PM 77.0 °F 53.1 °F 43% 29.99 in 10.0 mi Variable 5.8 mph - N/A   Clear
6:53 PM 75.9 °F 54.0 °F 46% 29.99 in 10.0 mi NW 4.6 mph - N/A   Clear
7:53 PM 73.9 °F 55.0 °F 52% 30.00 in 10.0 mi Calm Calm - N/A   Clear
8:53 PM 64.0 °F 57.9 °F 80% 30.02 in 10.0 mi Calm Calm - N/A   Clear
9:53 PM 62.1 °F 55.0 °F 78% 30.04 in 10.0 mi NE 3.5 mph - N/A   Clear
10:53 PM 60.1 °F 55.0 °F 83% 30.04 in 10.0 mi Calm Calm - N/A   Clear
11:53 PM 57.0 °F 55.0 °F 93% 30.04 in 10.0 mi Calm Calm - N/A   Clear